Tracking 30685 objects as of 18-Jun-2025
HD Live streaming from Space Station
objects crossing your sky now

COSMOS 520

Track COSMOS 520 now!
COSMOS 520 is classified as:


NORAD ID: 6192
Int'l Code: 1972-072A
Perigee: 7,353.8 km
Apogee: 32,885.6 km
Inclination: 71.8 °
Period: 715.2 minutes
Semi major axis: 26490 km
RCS: 12.5618 m2 (large)
Launch date: September 19, 1972
Source: Commonwealth of Independent States (former USSR) (CIS)
Launch site: PLESETSK MISSILE AND SPACE COMPLEX (PKMTR)
Your satellite tracking list
Your tracking list is empty




NASA's NSSDC Master Catalog

Two Line Element Set (TLE):
1 06192U 72072A   25168.38010715  .00000017  00000-0  00000-0 0  9991
2 06192  71.7693 238.9854 4819012 196.0028 168.0717  2.01354906387843
Source of the keplerian elements: AFSPC